Weather in Bizerte

Tunisia     37˚16′53″N   9˚51′24″E
temp.,
°C
wind,
m/s
gust,
m/s
humid.,
%
clouds,
%
prec.,
mm/h
press.,
hPa
HPBL,
m
3 december, thu
thu301:00+12˚nnw7992100 9.6 1008590
04:00+13˚nw6971100 6.3 1009866
07:00+13˚nw101270100 6.6 10091034
10:00+14˚nw11136831 0.4 10101541
13:00+14˚nw13166333 0.8 10101792
16:00+14˚nw11146336 0.3 10091558
19:00+13˚wnw7106925 0.4 1010829
22:00+12˚w577517 0.6 1010552
4 december, fri
fri401:00+12˚wsw367144 1.1 1008378
04:00+11˚s457112 0.0 1006156
07:00+10˚s567029 0.0 1005161
10:00+12˚s455958 0.0 1004223
13:00+16˚ssw344756 0.0 1002615
16:00+17˚sw245575 0.0 1001428
19:00+15˚s345662 0.0 1001136
22:00+14˚s45611 0.0 1001122
5 december, sat
sat501:00+14˚s575942 0.0 1000177
04:00+14˚s6125633 0.0 998343
07:00+14˚s6115726 0.0 998269
10:00+17˚s11175048 0.0 9981056
13:00+18˚wsw6105231 0.0 9981220
16:00+15˚wsw71061100 0.3 9981340
19:00+12˚w101371100 1.0 10001058
22:00+11˚wsw91369100 0.5 10011127
6 december, sun
sun601:00+11˚w10147791 1.8 10011178
04:00+12˚w131770100 2.3 10021490
07:00+12˚wnw101369100 4.2 10031053
10:00+13˚w10136679 0.6 10041501
13:00+13˚w12156754 1.4 10041524
16:00+13˚w101470100 2.6 10051259
19:00+12˚w696969 3.2 1007628
22:00+10˚wsw6117467 1.2 1008702
7 december, mon
mon701:00+10˚sw6127170 1.6 1009748
04:00+10˚wsw7137391 0.4 1009814
07:00+10˚wsw7136990 0.9 1010886
10:00+11˚wsw8147273 0.5 1011991
13:00+14˚w11156365 1.1 10121729
16:00+13˚wnw79696 1.0 10131067
19:00+12˚w6107625 1.5 1014684
22:00+12˚w6117556 1.2 1015737